FALCON 9 DEB (47683 NORAD) Tracking and Keplerian Element Data

This shows tracking and keplerian element data for the satellite.

Feedback or suggestion? Click here.




ElementValue
Catalog47683
NameFALCON 9 DEB
Epoch Orbit191
Epoch Day57.12540804
Epoch Year2021
RAAN51.5259
Inclination53.0494
Eccentricity0.0017159
Argument of Perigee247.0355
Mean Anonmoly112.8868
Mean Motion16.09001262
Decay Rate0.00469011
L11 47683U 21012BR 21057.12540804 .00469011 12044-3 50826-3 0 9992
L22 47683 53.0494 51.5259 0017159 247.0355 112.8868 16.09001262 1913

Live tracking and technical data element details for FALCON 9 DEB (NORAD 47683). FALCON 9 DEB can be tracked NOW for your location showing map with azimuth and elevation plus other details from your city location.

Track the satellite on the map from your city or location and see movement details for azimuth, elevation, latitude, longitude, range, height, and movement on the map or in text.







IsCatalogInMostPopularTable: catalog: 47683, numindb: 1
Update: records affected: 1



GetName: 47683 FALCON 9 DEB

Hit Count: updated at: Fri, 26 Feb 2021 10:31:12 GMT